Racecast

TSTCA JV Cross Country Championships

Schenley Park · 5000m · Girls · Compiled · PA

133 runners from 1 division

These divisions were run separately. This is how their times compare, not how they finished — the places and scores below were never contested.

View full meet →

Team scores

Place Team Points 12345 67
1 Mt Lebanon (PA) 39 1 6 7 9 16 18 34
2 Baldwin (PA) 78 2 4 10 27 35 47 52
3 Upper Saint Clair (PA) 115 13 23 25 26 28 37 54
4 Bethel Park Senior (PA) 124 15 19 21 30 39 46 48
5 Pine-Richland (PA) 138 5 22 29 38 44 53 56
6 Hempfield Area (PA) 149 11 17 31 33 57 58 59
7 Plum Senior (PA) 162 3 36 40 41 42 51 55
8 Greater Latrobe (PA) 170 8 12 24 62 64 67 68
9 Oakland Catholic (PA) 206 14 20 43 60 69
10 Chartiers Valley (PA) 270 32 45 50 71 72
11 Taylor Allderdice (PA) 322 49 61 63 74 75 79
12 Penn Trafford (PA) 350 65 66 70 73 76 77 78

Not scored, fewer than five finishers: Kiski Area (3), Erie First Christian Academy (1)

Results

Place Athlete Grade School Time Rating Points Actual race
1 Sadie Saxton 9 Mt Lebanon (PA) 1 21:10.0 117.9 1 1
2 Alexandra Barr 9 Baldwin (KS) 1 21:25.0 116.5 2 2
3 Maddie Biertempful 9 Plum Senior (PA) 1 21:33.0 115.8 3 3
4 Erica Koenig 9 Baldwin (KS) 2 21:34.0 115.7 4 4
5 Madeline Collins 10 Pine-Richland (PA) 1 21:51.0 114.2 5 5
6 Ellie Meinzer 10 Mt Lebanon (PA) 2 21:53.0 114.0 6 6
7 Sierra van Dijk 10 Mt Lebanon (PA) 3 21:57.0 113.7 7 7
8 Katie Slivko 11 Greater Latrobe (PA) 1 22:00.0 113.4 8 8
9 Emma Furry 9 Mt Lebanon (PA) 4 22:27.0 111.2 9 9
10 Alicia Mastroianni 11 Baldwin (KS) 3 22:36.0 110.4 10 10
11 Meaghan Stewart 10 Hempfield Area (PA) 1 22:40.0 110.1 11 11
12 Alyssa Rock 9 Greater Latrobe (PA) 2 22:46.0 109.6 12 12
13 Sarah Burton 11 Upper Saint Clair (PA) 1 22:47.0 109.5 13 13
14 Taylor Lewand 11 Oakland Catholic (PA) 1 22:50.0 109.3 14 14
15 Cailey Klink 9 Bethel Park Senior (PA) 1 22:55.0 108.9 15 15
16 Azaria Kobik 10 Mt Lebanon (PA) 5 22:59.0 108.6 16 16
17 Brianna Gaudi 11 Hempfield Area (PA) 2 23:00.0 108.5 17 17
18 Frankie Kavalir 9 Mt Lebanon (PA) 6 23:01.0 108.4 18 18
19 Katelyn Hancock 10 Bethel Park Senior (PA) 2 23:03.0 108.3 19 19
20 Karly Kirk 12 Oakland Catholic (PA) 2 23:08.0 107.9 20 20
21 Danielle Hinish 9 Bethel Park Senior (PA) 3 23:14.0 107.4 21 21
22 Helen Guo 10 Pine-Richland (PA) 2 23:14.0 107.4 22 22
23 Hannah Wilding 9 Upper Saint Clair (PA) 2 23:16.0 107.2 23 23
24 Abby Novotny 9 Greater Latrobe (PA) 3 23:16.0 107.2 24 24
25 Caitlin Pyles 9 Upper Saint Clair (PA) 3 23:18.0 107.1 25 25
26 Rachel Lott 10 Upper Saint Clair (PA) 4 23:18.0 107.1 26 26
27 Annie Chester 12 Baldwin (KS) 4 23:19.0 107.0 27 27
28 Gina Petito 11 Upper Saint Clair (PA) 5 23:20.0 106.9 28 28
29 Jessica Uhrin 10 Pine-Richland (PA) 3 23:21.0 106.9 29 29
30 Julianne Rosa 10 Bethel Park Senior (PA) 4 23:22.0 106.8 30 30
31 Savannah Miller 11 Hempfield Area (PA) 3 23:24.0 106.6 31 31
32 Alexis Byers 9 Chartiers Valley (PA) 1 23:27.0 106.4 32 32
33 Kara Mastrorocco 9 Hempfield Area (PA) 4 23:34.0 105.9 33 33
34 Clara Davis-Andres 9 Mt Lebanon (PA) 7 23:35.0 105.8 34 34
35 Meghan Varney 11 Baldwin (KS) 5 23:35.0 105.8 35 35
36 Josie Diclaudio 9 Plum Senior (PA) 2 23:37.0 105.7 36 36
37 Kelsey Stewart 11 Mt Lebanon (PA) 8 23:38.0 105.6 37
38 Krista White 10 Upper Saint Clair (PA) 6 23:39.0 105.5 37 38
39 Dani Bartley 11 Pine-Richland (PA) 4 23:40.0 105.4 38 39
40 Macie McKitrick 9 Bethel Park Senior (PA) 5 23:41.0 105.4 39 40
41 Emily France 10 Plum Senior (PA) 3 23:44.0 105.1 40 41
42 Kayla Anderson 9 Plum Senior (PA) 4 23:44.0 105.1 41 42
43 Marissa Valotta 10 Plum Senior (PA) 5 23:44.0 105.1 42 43
44 Sarah Marlovits 10 Oakland Catholic (PA) 3 23:48.0 104.8 43 44
45 Monica Papulak 10 Pine-Richland (PA) 5 23:52.0 104.6 44 45
46 Natalie Voll 9 Chartiers Valley (PA) 2 23:59.0 104.1 45 46
47 Caitlin Zeher 10 Bethel Park Senior (PA) 6 24:08.0 103.4 46 47
48 Stephanie Bott 10 Baldwin (KS) 6 24:16.0 102.8 47 48
49 Amy Bogan 10 Bethel Park Senior (PA) 7 24:17.0 102.8 48 49
50 Ana Jaramaz 12 Taylor Allderdice (PA) 1 24:19.0 102.6 49 50
51 Leanna Pietracatello 10 Chartiers Valley (PA) 3 24:21.0 102.5 50 51
52 Abby Sebunia 10 Plum Senior (PA) 6 24:22.0 102.4 51 52
53 Katie Winter 9 Baldwin (KS) 7 24:23.0 102.3 52 53
54 Alexis LaRocca 10 Erie First Christian Academy (PA) 1 24:31.0 101.8 54
55 Erin Flaherty 10 Pine-Richland (PA) 6 24:35.0 101.5 53 55
56 Mary Lucas 9 Upper Saint Clair (PA) 7 24:36.0 101.4 54 56
57 Kasey Emmett 9 Bethel Park Senior (PA) 8 24:40.0 101.2 57
58 Erin Pacalo 9 Upper Saint Clair (PA) 8 24:41.0 101.1 58
59 Emma White 11 Upper Saint Clair (PA) 9 24:46.0 100.8 59
60 Michela Zacher 11 Plum Senior (PA) 7 24:47.0 100.7 55 60
61 Brooke Heilman 9 Pine-Richland (PA) 7 24:47.0 100.7 56 61
62 Julie Heming 10 Hempfield Area (PA) 5 24:54.0 100.2 57 62
63 Offenberg Luisa 10 Upper Saint Clair (PA) 10 24:55.0 100.2 63
64 Grace Simmons 9 Mt Lebanon (PA) 9 24:55.0 100.2 64
65 Metzgar Shea 11 Plum Senior (PA) 8 24:56.0 100.1 65
66 Ayla Sarsfield 10 Hempfield Area (PA) 6 24:57.0 100.0 58 66
67 Miranda Veliky 9 Hempfield Area (PA) 7 24:57.0 100.0 59 67
68 Jocelyn Solomon 9 Mt Lebanon (PA) 10 24:57.0 100.0 68
69 Delaney Hawk 11 Plum Senior (PA) 9 24:58.0 99.9 69
70 Kayla Robosky 9 Hempfield Area (PA) 8 24:59.0 99.9 70
71 Kayley Szymanski 10 Pine-Richland (PA) 8 25:05.0 99.5 71
72 Morgan Geyer 10 Baldwin (KS) 8 25:09.0 99.2 72
73 Skyler Dewitt 12 Pine-Richland (PA) 9 25:10.0 99.2 73
74 Marie Citrano 9 Plum Senior (PA) 10 25:22.0 98.4 74
75 Ellen Thorne 12 Hempfield Area (PA) 9 25:22.0 98.4 75
76 Maura Bacik 12 Baldwin (KS) 9 25:23.0 98.3 76
77 Paige Pegher 9 Oakland Catholic (PA) 4 25:23.0 98.3 60 77
78 Bailey McConnell 11 Mt Lebanon (PA) 11 25:24.0 98.2 78
79 Deepika Narayanan 10 Upper Saint Clair (PA) 11 25:31.0 97.8 79
80 Megan Harding 9 Baldwin (KS) 10 25:32.0 97.7 80
81 Dighan Kelly 9 Baldwin (KS) 11 25:34.0 97.6 81
82 Caitlin Giron 10 Mt Lebanon (PA) 12 25:35.0 97.5 82
83 Emma Chester 10 Baldwin (KS) 12 25:46.0 96.8 83
84 Sydney Haber 12 Taylor Allderdice (PA) 2 25:49.0 96.7 61 84
85 Molly Shure 11 Mt Lebanon (PA) 13 25:57.0 96.2 85
86 Rachel Albert 10 Bethel Park Senior (PA) 9 26:00.0 96.0 86
87 Marrisa McCullough 12 Kiski Area (PA) 1 26:02.0 95.8 87
88 Francesca Galietta 9 Bethel Park Senior (PA) 10 26:09.0 95.4 88
89 Lia Callahan 9 Greater Latrobe (PA) 4 26:12.0 95.2 62 89
90 Faith Nichols 10 Taylor Allderdice (PA) 3 26:15.0 95.1 63 90
91 Katie Shick 11 Kiski Area (PA) 2 26:15.0 95.1 91
92 Castle Leonard 11 Greater Latrobe (PA) 5 26:16.0 95.0 64 92
93 Erin Ramsey 10 Penn Trafford (PA) 1 26:17.0 94.9 65 93
94 Delaney Houlahan 11 Plum Senior (PA) 11 26:19.0 94.8 94
95 Emily Stasko 11 Plum Senior (PA) 12 26:27.0 94.3 95
96 Deanna Liberatore 10 Plum Senior (PA) 13 26:32.0 94.1 96
97 Nicole Gaussa 11 Penn Trafford (PA) 2 26:34.0 93.9 66 97
98 Megan Bohatch 10 Plum Senior (PA) 14 26:42.0 93.5 98
99 Rosemary Nicholson 11 Mt Lebanon (PA) 14 26:59.0 92.5 99
100 Cassidy Christian 12 Greater Latrobe (PA) 6 27:05.0 92.1 67 100
101 Andee Stynchula 12 Hempfield Area (PA) 10 27:06.0 92.1 101
102 Raquelle Reinheimer 12 Baldwin (KS) 13 27:08.0 92.0 102
103 Kate Rellick 12 Greater Latrobe (PA) 7 27:17.0 91.5 68 103
104 Amber Aston 10 Hempfield Area (PA) 11 27:22.0 91.2 104
105 Rhodora Moore 10 Oakland Catholic (PA) 5 27:36.0 90.4 69 105
106 Jamie Brian 11 Penn Trafford (PA) 3 27:40.0 90.2 70 106
107 Lauren Bittner 10 Chartiers Valley (PA) 4 27:46.0 89.9 71 107
108 Kaylan Heatley 9 Hempfield Area (PA) 12 27:47.0 89.8 108
109 Jenna Ulishney 12 Greater Latrobe (PA) 8 27:49.0 89.7 109
110 Lydia Archinal 10 Bethel Park Senior (PA) 11 27:50.0 89.7 110
111 Hannah Neuman 12 Kiski Area (PA) 3 27:51.0 89.6 111
112 Moira Toomey 9 Bethel Park Senior (PA) 12 27:54.0 89.4 112
113 Himali Ranade 11 Chartiers Valley (PA) 5 28:10.0 88.6 72 113
114 Sebunia Emily 12 Plum Senior (PA) 15 28:31.0 87.5 114
115 Amy Voss 11 Plum Senior (PA) 16 28:46.0 86.8 115
116 Emily Gall 9 Plum Senior (PA) 17 28:52.0 86.4 116
117 Christine Phelps 11 Penn Trafford (PA) 4 28:58.0 86.2 73 117
118 Nicole Wilkinson 12 Baldwin (KS) 14 29:02.0 85.9 118
119 Heather Miller 9 Pine-Richland (PA) 10 29:03.0 85.9 119
120 Elizabeth Smith 11 Mt Lebanon (PA) 15 29:05.0 85.8 120
121 Rachel Werksman 12 Hempfield Area (PA) 13 29:36.0 84.3 121
122 Rebecca Najdzinski 10 Bethel Park Senior (PA) 13 30:38.0 81.5 122
123 Suzy Weiss 12 Taylor Allderdice (PA) 4 30:45.0 81.2 74 123
124 Meg Cummings 9 Taylor Allderdice (PA) 5 31:28.0 79.3 75 124
125 Jillian Sosnack 9 Bethel Park Senior (PA) 14 31:56.0 78.1 125
126 Abby Cunningham 10 Penn Trafford (PA) 5 32:49.0 76.0 76 126
127 Emma Zigarovich 11 Penn Trafford (PA) 6 32:49.0 76.0 77 127
128 Megan McNally 11 Penn Trafford (PA) 7 33:03.0 75.5 78 128
129 Meghan Ford 12 Penn Trafford (PA) 8 33:07.0 75.3 129
130 Rachel Burgess 11 Taylor Allderdice (PA) 6 34:37.0 72.1 79 130
131 Deepika Sriram 10 Upper Saint Clair (PA) 12 35:04.0 71.2 131
132 Taylor Ciccarelli 10 Penn Trafford (PA) 9 36:51.0 67.7 132
133 Emily Tabor 11 Penn Trafford (PA) 10 36:52.0 67.7 133